User: anonymous   Login
Location: Unspecified
(0.0000°N, 0.0000°E)
Time: 05:04:53
(UTC+00:00)
Language:

COSMOS 2509 - Orbit

View from above orbital plane
View from above orbital plane
View from above satellite
View from above satellite

Ground track
Ground track

The orbit data is extracted from the following two-line orbital elements,

1 40922U 15050C   24109.54257796  .00000034  00000-0  17438-3 0  9992
2 40922  82.4908 210.1240 0014927 321.1695  38.8311 12.42877624388781
Epoch (UTC): 18 April 2024 13:01:18
Eccentricity: 0.0014927
inclination: 82.4908°
perigee height: 1482 km
apogee height: 1506 km
right ascension of ascending node: 210.1240°
argument of perigee: 321.1695°
revolutions per day: 12.42877624
mean anomaly at epoch: 38.8311°
orbit number at epoch: 38878

The dashed part of the orbit path shows where the satellite is in the earth's shadow,  

DLR